Dutch Harbor, AK

8:10 PM AKDT on June 25, 2017 (GMT -0800)
Unalaska

Weather History for PADU - April, 2014

Change the Weather History Date:

Monday, April 14, 2014

  Actual Average Record
Temperature  
Mean Temperature 40 °F -  
Max Temperature 43 °F 41 °F 49 °F (1986)
Min Temperature 36 °F 31 °F 23 °F (1982)
Degree Days  
Heating Degree Days 26    
Moisture  
Dew Point 31 °F    
Average Humidity 73    
Maximum Humidity 87    
Minimum Humidity 62    
Precipitation  
Precipitation 0.26 in - - ()
Sea Level Pressure  
Sea Level Pressure 29.59 in    
Wind  
Wind Speed 13 mph (SE)    
Max Wind Speed 30 mph    
Max Gust Speed 43 mph    
Visibility 9 miles    
Events Rain    
Averages and records for this station are not official NWS values.
T = Trace of Precipitation, MM = Missing Value Source: NWS Daily Summary

Daily Weather History Graph

Daily Weather History Graph

Search for Another Location

Airport or City:

Trip Planner

Search our weather history database for the weather conditions in past years. The results will help you decide how hot, cold, wet, or windy it might be!

Date:

Astronomy

Apr. 14, 2014 Rise Set
Actual Time 8:07 AM AKDT 10:06 PM AKDT
Civil Twilight 7:29 AM AKDT 10:44 PM AKDT
Nautical Twilight 6:42 AM AKDT 11:32 PM AKDT
Astronomical Twilight 5:48 AM AKDT 12:27 AM AKDT
Moon 9:58 PM AKDT (4/14) 7:51 AM AKDT (4/14)
Length of Visible Light 15h 15m
Length of Day
13h 59m
Full, 100% of the Moon is Illuminated
Apr 14
Full
Apr 14
Full
Apr 21
Last Quarter
Apr 28
New
May 6
First Quarter

Hourly Weather History & Observations

Time (AKDT) Temp. Windchill Dew Point Humidity Pressure Visibility Wind Dir Wind Speed Gust Speed Precip Events Conditions
12:56 AM 37.9 °F 30.9 °F 28.9 °F 70% 29.73 in 10.0 mi South 10.4 mph - N/A   Clear
1:56 AM 37.9 °F 32.1 °F 28.0 °F 68% 29.74 in 10.0 mi South 8.1 mph - N/A   Clear
2:56 AM 37.0 °F 33.3 °F 27.0 °F 67% 29.75 in 10.0 mi SSE 4.6 mph - N/A   Clear
3:56 AM 36.0 °F 32.1 °F 27.0 °F 70% 29.75 in 10.0 mi ESE 4.6 mph - N/A   Clear
4:56 AM 37.0 °F 34.5 °F 25.0 °F 62% 29.74 in 10.0 mi Variable 3.5 mph - N/A   Clear
5:56 AM 37.0 °F 33.3 °F 26.1 °F 65% 29.72 in 10.0 mi South 4.6 mph - N/A   Clear
6:56 AM 37.9 °F 32.7 °F 28.0 °F 68% 29.72 in 10.0 mi SSE 6.9 mph - N/A   Clear
7:56 AM 37.9 °F 32.1 °F 28.0 °F 68% 29.70 in 10.0 mi South 8.1 mph - N/A   Partly Cloudy
8:56 AM 39.0 °F 34.0 °F 28.0 °F 65% 29.70 in 10.0 mi Variable 6.9 mph - N/A   Partly Cloudy
9:56 AM 39.9 °F 32.9 °F 28.9 °F 65% 29.70 in 10.0 mi SSE 11.5 mph 20.7 mph N/A   Scattered Clouds
10:56 AM 41.0 °F 32.2 °F 30.9 °F 67% 29.69 in 10.0 mi SE 18.4 mph 24.2 mph N/A   Scattered Clouds
11:56 AM 41.0 °F 31.6 °F 30.0 °F 65% 29.66 in 10.0 mi SE 20.7 mph - N/A   Scattered Clouds
12:56 PM 43.0 °F 33.5 °F 32.0 °F 65% 29.64 in 10.0 mi ESE 24.2 mph 29.9 mph N/A   Scattered Clouds
1:56 PM 42.1 °F 33.1 °F 32.0 °F 67% 29.62 in 10.0 mi ESE 20.7 mph 32.2 mph N/A   Scattered Clouds
2:17 PM 42.8 °F 35.1 °F 32.0 °F 66% 29.59 in 10.0 mi ESE 16.1 mph 27.6 mph N/A   Mostly Cloudy
2:56 PM 42.1 °F 32.1 °F 32.0 °F 67% 29.59 in 10.0 mi SE 25.3 mph 33.4 mph N/A   Mostly Cloudy
3:56 PM 39.9 °F 28.4 °F 34.0 °F 79% 29.55 in 9.0 mi SE 29.9 mph 36.8 mph 0.01 in Rain Light Rain
4:56 PM 39.9 °F 28.6 °F 34.0 °F 79% 29.52 in 9.0 mi SE 28.8 mph 42.6 mph 0.07 in Rain Light Rain
5:50 PM 39.2 °F 28.7 °F 33.8 °F 81% 29.49 in 4.0 mi SE 23.0 mph 39.1 mph 0.02 in Rain Light Rain
5:56 PM 39.0 °F 28.3 °F 34.0 °F 82% 29.51 in 3.0 mi SE 24.2 mph 32.2 mph 0.03 in Rain Rain
6:56 PM 37.9 °F 29.6 °F 33.1 °F 83% 29.50 in 3.0 mi SSE 13.8 mph 26.5 mph 0.10 in Rain Light Rain
7:08 PM 37.4 °F 30.3 °F 33.8 °F 87% 29.48 in 10.0 mi SSE 10.4 mph - 0.00 in Rain Light Rain
7:41 PM 39.2 °F 31.2 °F 33.8 °F 81% 29.46 in 5.0 mi SSE 13.8 mph 18.4 mph 0.01 in Rain Light Rain
7:56 PM 37.9 °F 28.5 °F 34.0 °F 86% 29.47 in 5.0 mi SE 17.3 mph - 0.02 in Rain Light Rain
8:08 PM 39.2 °F 29.0 °F 33.8 °F 81% 29.44 in 7.0 mi SE 21.9 mph 28.8 mph 0.00 in Rain Light Rain
8:56 PM 39.0 °F 28.0 °F 34.0 °F 82% 29.43 in 6.0 mi SE 25.3 mph 33.4 mph 0.02 in Rain Light Rain
9:56 PM 41.0 °F 33.9 °F 36.0 °F 82% 29.43 in 10.0 mi SE 12.7 mph 19.6 mph 0.00 in Rain Light Rain
10:56 PM 42.1 °F 35.2 °F 34.0 °F 73% 29.42 in 10.0 mi SE 12.7 mph - 0.01 in   Mostly Cloudy
11:20 PM 41.0 °F 33.1 °F 33.8 °F 76% 29.41 in 10.0 mi SSE 15.0 mph 20.7 mph 0.00 in Rain Light Rain
11:56 PM 42.1 °F 34.9 °F 32.0 °F 67% 29.43 in 10.0 mi SSE 13.8 mph 21.9 mph 0.00 in   Scattered Clouds